This is the latest recevied weather packets stored in our database for station/object DG5TS-10. If no packets are shown the sender has not sent any weather packets the latest 10 day(s).
| Time | Temp. | Humidity | Pressure | Rain* | Wind** | Luminosity | Snow |
|---|---|---|---|---|---|---|---|
| 1778020287 | 17.78° C | 42% | 1008.6 hPa | - | - | - | - |
| 1778019387 | 17.78° C | 42% | 1008.7 hPa | - | - | - | - |
| 1778018487 | 18.33° C | 42% | 1008.8 hPa | - | - | - | - |
| 1778017586 | 18.33° C | 42% | 1008.8 hPa | - | - | - | - |
| 1778016686 | 18.33° C | 42% | 1009 hPa | - | - | - | - |
| 1778015786 | 18.33° C | 41% | 1009.1 hPa | - | - | - | - |
| 1778014886 | 18.89° C | 41% | 1009 hPa | - | - | - | - |
| 1778013986 | 18.89° C | 41% | 1009.1 hPa | - | - | - | - |
| 1778013086 | 18.89° C | 40% | 1009.1 hPa | - | - | - | - |
| 1778012191 | 18.89° C | 40% | 1009.2 hPa | - | - | - | - |
| 1778011136 | 19.44° C | 40% | 1009 hPa | - | - | - | - |
| 1778010080 | 19.44° C | 40% | 1009 hPa | - | - | - | - |
| 1778009025 | 20° C | 39% | 1009 hPa | - | - | - | - |
| 1778007970 | 20° C | 38% | 1009 hPa | - | - | - | - |
| 1778006915 | 20.56° C | 37% | 1009 hPa | - | - | - | - |
| 1778005859 | 21.11° C | 36% | 1008.9 hPa | - | - | - | - |
| 1778004805 | 21.67° C | 35% | 1009 hPa | - | - | - | - |
| 1778003750 | 22.78° C | 34% | 1009.2 hPa | - | - | - | - |
| 1778002695 | 23.33° C | 33% | 1009 hPa | - | - | - | - |
| 1778001639 | 23.89° C | 31% | 1008.9 hPa | - | - | - | - |
| 1778000585 | 25° C | 29% | 1009.1 hPa | - | - | - | - |
| 1777999529 | 25.56° C | 28% | 1009.2 hPa | - | - | - | - |
| 1777998474 | 26.67° C | 27% | 1009.2 hPa | - | - | - | - |
| 1777997419 | 28.89° C | 23% | 1009.2 hPa | - | - | - | - |
| 1777996364 | 30° C | 23% | 1009.2 hPa | - | - | - | - |
* Rain since midnight (hover to see other rain measurements)
** Current wind speed in m/s (hover to see current wind gust speed)